TimeCDT,TemperatureF,Dew PointF,Humidity,Sea Level PressureIn,VisibilityMPH,Wind Direction,Wind SpeedMPH,Gust SpeedMPH,PrecipitationIn,Events,Conditions,WindDirDegrees,DateUTC
12:15 AM,74.7,61.3,63,29.93,10.0,SSE,10.4,-,N/A,,Clear,160,2013-10-03 05:15:00
12:35 AM,74.1,61.7,65,29.93,10.0,SSE,9.2,-,N/A,,Clear,160,2013-10-03 05:35:00
12:55 AM,73.8,62.1,67,29.93,10.0,South,8.1,-,N/A,,Clear,170,2013-10-03 05:55:00
1:15 AM,73.4,62.4,68,29.92,10.0,SSE,8.1,-,N/A,,Clear,160,2013-10-03 06:15:00
1:35 AM,72.9,62.6,70,29.92,10.0,South,6.9,-,N/A,,Clear,170,2013-10-03 06:35:00
1:55 AM,72.7,62.6,71,29.91,10.0,SSE,8.1,-,N/A,,Clear,160,2013-10-03 06:55:00
2:15 AM,72.1,62.8,72,29.91,10.0,SSE,9.2,-,N/A,,Clear,160,2013-10-03 07:15:00
2:35 AM,71.8,62.8,73,29.91,10.0,SSE,6.9,-,N/A,,Clear,160,2013-10-03 07:35:00
2:55 AM,71.2,62.6,74,29.91,10.0,SSE,8.1,-,N/A,,Clear,160,2013-10-03 07:55:00
3:15 AM,71.1,62.8,75,29.90,10.0,SSE,8.1,-,N/A,,Clear,160,2013-10-03 08:15:00
3:35 AM,70.7,62.8,76,29.90,10.0,South,8.1,-,N/A,,Clear,170,2013-10-03 08:35:00
3:55 AM,70.7,63.0,76,29.89,10.0,South,10.4,-,N/A,,Clear,170,2013-10-03 08:55:00
4:15 AM,70.9,63.1,76,29.89,10.0,South,8.1,-,N/A,,Clear,180,2013-10-03 09:15:00
4:35 AM,71.1,63.3,76,29.89,10.0,South,11.5,-,N/A,,Clear,170,2013-10-03 09:35:00
4:55 AM,71.2,63.5,76,29.88,10.0,South,12.7,-,N/A,,Clear,180,2013-10-03 09:55:00
5:15 AM,71.2,63.1,75,29.88,10.0,South,10.4,-,N/A,,Clear,190,2013-10-03 10:15:00
5:35 AM,71.1,62.8,75,29.88,10.0,South,13.8,-,N/A,,Clear,170,2013-10-03 10:35:00
5:55 AM,71.2,62.6,74,29.88,10.0,South,11.5,-,N/A,,Clear,170,2013-10-03 10:55:00
6:15 AM,71.6,62.2,72,29.90,10.0,West,9.2,-,N/A,,Clear,270,2013-10-03 11:15:00
6:35 AM,71.2,62.1,73,29.90,10.0,SW,5.8,-,N/A,,Clear,220,2013-10-03 11:35:00
6:55 AM,70.7,61.7,73,29.90,10.0,SW,3.5,-,N/A,,Clear,230,2013-10-03 11:55:00
7:15 AM,70.3,61.7,74,29.90,10.0,South,5.8,-,N/A,,Clear,170,2013-10-03 12:15:00
7:35 AM,70.5,61.2,72,29.90,10.0,South,9.2,-,N/A,,Clear,180,2013-10-03 12:35:00
7:55 AM,70.7,60.8,71,29.90,10.0,South,8.1,-,N/A,,Clear,190,2013-10-03 12:55:00
8:15 AM,70.9,60.8,70,29.90,10.0,South,10.4,-,N/A,,Clear,180,2013-10-03 13:15:00
8:35 AM,71.8,60.8,68,29.91,10.0,South,9.2,-,N/A,,Clear,180,2013-10-03 13:35:00
8:55 AM,72.7,60.8,66,29.92,10.0,SW,6.9,-,N/A,,Clear,220,2013-10-03 13:55:00
9:15 AM,74.3,61.0,63,29.93,10.0,SSW,8.1,-,N/A,,Clear,200,2013-10-03 14:15:00
9:35 AM,75.4,61.2,61,29.93,10.0,SSW,6.9,-,N/A,,Clear,200,2013-10-03 14:35:00
9:55 AM,77.0,61.2,58,29.93,10.0,SSW,6.9,-,N/A,,Clear,200,2013-10-03 14:55:00
10:15 AM,78.4,60.8,55,29.93,10.0,SSW,11.5,-,N/A,,Clear,210,2013-10-03 15:15:00
10:35 AM,79.9,60.4,51,29.93,10.0,South,11.5,-,N/A,,Clear,180,2013-10-03 15:35:00
10:55 AM,81.9,59.7,47,29.93,10.0,South,9.2,-,N/A,,Clear,170,2013-10-03 15:55:00
11:15 AM,83.1,58.5,43,29.93,10.0,South,11.5,-,N/A,,Clear,180,2013-10-03 16:15:00
11:35 AM,84.9,57.6,39,29.93,10.0,SSW,10.4,-,N/A,,Clear,200,2013-10-03 16:35:00
11:55 AM,86.5,55.6,35,29.92,10.0,SSE,10.4,-,N/A,,Clear,160,2013-10-03 16:55:00
12:15 PM,88.7,53.2,30,29.91,10.0,South,10.4,-,N/A,,Clear,180,2013-10-03 17:15:00
12:35 PM,90.1,51.8,27,29.91,10.0,South,9.2,-,N/A,,Clear,180,2013-10-03 17:35:00
12:55 PM,90.7,51.4,26,29.89,10.0,SSE,9.2,18.4,N/A,,Clear,150,2013-10-03 17:55:00
1:15 PM,91.9,50.9,25,29.89,10.0,South,13.8,-,N/A,,Clear,180,2013-10-03 18:15:00
1:35 PM,92.3,47.7,22,29.88,10.0,South,10.4,16.1,N/A,,Clear,180,2013-10-03 18:35:00
1:55 PM,93.0,50.9,24,29.87,10.0,SSE,11.5,20.7,N/A,,Clear,160,2013-10-03 18:55:00
2:15 PM,93.9,51.6,24,29.85,10.0,South,15.0,19.6,N/A,,Clear,180,2013-10-03 19:15:00
2:35 PM,93.6,50.7,23,29.84,10.0,South,16.1,24.2,N/A,,Clear,170,2013-10-03 19:35:00
2:55 PM,93.7,52.2,24,29.83,10.0,SSE,13.8,25.3,N/A,,Clear,160,2013-10-03 19:55:00
3:15 PM,93.9,51.6,24,29.82,10.0,South,16.1,24.2,N/A,,Clear,190,2013-10-03 20:15:00
3:35 PM,93.4,50.7,23,29.82,10.0,South,15.0,25.3,N/A,,Clear,170,2013-10-03 20:35:00
3:55 PM,93.4,51.8,24,29.82,10.0,South,18.4,21.9,N/A,,Clear,170,2013-10-03 20:55:00
4:15 PM,93.4,51.6,24,29.81,10.0,South,12.7,18.4,N/A,,Clear,180,2013-10-03 21:15:00
4:35 PM,93.4,51.4,24,29.81,10.0,SSW,12.7,25.3,N/A,,Scattered Clouds,210,2013-10-03 21:35:00
4:55 PM,92.5,52.2,25,29.80,10.0,South,17.3,23.0,N/A,,Clear,170,2013-10-03 21:55:00
5:15 PM,92.3,52.9,26,29.80,10.0,South,20.7,26.5,N/A,,Clear,180,2013-10-03 22:15:00
5:35 PM,92.5,53.1,26,29.79,10.0,South,16.1,24.2,N/A,,Clear,170,2013-10-03 22:35:00
5:55 PM,91.4,53.1,27,29.80,10.0,South,17.3,23.0,N/A,,Clear,170,2013-10-03 22:55:00
6:15 PM,90.9,52.9,27,29.80,10.0,South,15.0,23.0,N/A,,Clear,170,2013-10-03 23:15:00
6:35 PM,89.6,52.9,28,29.80,10.0,South,17.3,-,N/A,,Clear,170,2013-10-03 23:35:00
6:55 PM,88.7,54.0,30,29.80,10.0,SSE,16.1,23.0,N/A,,Clear,160,2013-10-03 23:55:00
7:15 PM,87.4,55.0,33,29.81,10.0,South,12.7,23.0,N/A,,Clear,170,2013-10-04 00:15:00
7:35 PM,86.4,55.0,34,29.81,10.0,South,12.7,-,N/A,,Clear,180,2013-10-04 00:35:00
7:55 PM,85.8,55.6,35,29.81,10.0,South,13.8,-,N/A,,Clear,170,2013-10-04 00:55:00
8:15 PM,84.4,57.7,40,29.82,10.0,SSE,15.0,-,N/A,,Clear,160,2013-10-04 01:15:00
8:35 PM,83.7,58.3,42,29.82,10.0,South,16.1,23.0,N/A,,Clear,170,2013-10-04 01:35:00
8:55 PM,82.8,59.2,45,29.82,10.0,SSE,16.1,20.7,N/A,,Clear,160,2013-10-04 01:55:00
9:15 PM,82.0,59.7,47,29.83,10.0,South,17.3,21.9,N/A,,Clear,170,2013-10-04 02:15:00
9:35 PM,81.5,60.3,48,29.84,10.0,South,13.8,20.7,N/A,,Clear,170,2013-10-04 02:35:00
9:55 PM,80.6,60.4,50,29.84,10.0,South,17.3,20.7,N/A,,Clear,170,2013-10-04 02:55:00
10:15 PM,80.1,60.6,51,29.84,10.0,South,16.1,19.6,N/A,,Clear,170,2013-10-04 03:15:00
10:35 PM,79.3,60.8,53,29.85,10.0,South,17.3,20.7,N/A,,Clear,170,2013-10-04 03:35:00
11:35 PM,77.9,61.2,56,29.85,10.0,South,17.3,-,N/A,,Clear,180,2013-10-04 04:35:00
11:55 PM,77.5,61.0,57,29.85,10.0,South,16.1,20.7,N/A,,Clear,180,2013-10-04 04:55:00